Location: Maiden
(35.5760°N, 81.2120°W)
Time: 22:05:55
(UTC-04:00)

Cosmos 1943 - Pass Details

Date: 14 June 2018
Orbit: 835 x 849 km, 71.0° (Epoch: 17 August)

Event Time Altitude Azimuth Distance (km) Brightness Sun altitude
Rises 22:02:30 0° 346° (NNW) 3,411 7.4 -14.1°
Reaches altitude 10° 22:05:09 10° 355° (N) 2,470 6.4 -14.5°
Maximum altitude 22:10:25 39° 63° (ENE) 1,253 3.9 -15.2°
Enters shadow 22:13:23 22° 116° (ESE) 1,736 4.3 -15.7°
